PIESAT-2 09 (62333 NORAD) Tracking and Keplerian Element Data

This shows tracking and keplerian element data for the satellite.

Feedback or suggestion? Click here.




ElementValue
Catalog62333
NamePIESAT-2 09
Epoch Orbit746
Epoch Day35.17298865
Epoch Year2025
RAAN344.4317
Inclination97.5108
Eccentricity0.0001981
Argument of Perigee104.208
Mean Anonmoly255.9372
Mean Motion15.13524653
Decay Rate0.00019479
L11 62333U 24241A 25035.17298865 .00019479 00000+0 10889-2 0 9998
L22 62333 97.5108 344.4317 0001981 104.2080 255.9372 15.13524653 7464



Live tracking and technical data element details for PIESAT-2 09 (NORAD 62333). PIESAT-2 09 can be tracked NOW for your location showing map with azimuth and elevation plus other details from your city location.







IsCatalogInMostPopularTable: catalog: 62333, numindb: 8
Update: records affected: 1



GetName: 62333 PIESAT-2 09

Hit Count: updated at: Mon, 19 May 2025 02:33:23 GMT